When you browse on this site, cookies collect data to enhance your experience and personalize the content and advertising you see.
Visit our Privacy Policy to learn more. By continuing to use the site, you agree to this use of cookies and data.
  • In Österreich
  • Länderverzeichnis
  • Für 7 Tage
  • Wassertemperatur
  • Wetterkarte
  • News
  • Widgets
  • user-avatar
    Anmelden

    Stündliche Wetter Tlaxcoapan

    Heute, 15 Dezember, Sonntag

    Zeit Temperatur Niederschläge Wind Luftdruck Luftfeuchtigkeit
    00:00 +12°C° 0 mm 1 m/S 592 mmHg 42%
    01:00 +12°C° 0 mm 1 m/S 592 mmHg 44%
    02:00 +12°C° 0 mm 1 m/S 592 mmHg 46%
    03:00 +11°C° 0 mm 1 m/S 592 mmHg 48%
    04:00 +11°C° 0 mm 1 m/S 591 mmHg 50%
    05:00 +10°C° 0 mm 1 m/S 591 mmHg 52%
    06:00 +12°C° 0 mm 1 m/S 593 mmHg 48%
    07:00 +14°C° 0 mm 1 m/S 594 mmHg 43%
    08:00 +16°C° 0 mm 1 m/S 595 mmHg 39%
    09:00 +19°C° 0 mm 1 m/S 596 mmHg 34%
    10:00 +21°C° 0 mm 1 m/S 596 mmHg 28%
    11:00 +23°C° 0 mm 1 m/S 597 mmHg 23%
    12:00 +24°C° 0 mm 1 m/S 596 mmHg 21%
    13:00 +24°C° 0 mm 1 m/S 596 mmHg 19%
    14:00 +25°C° 0 mm 1 m/S 595 mmHg 16%
    15:00 +23°C° 0 mm 1 m/S 595 mmHg 20%
    16:00 +21°C° 0 mm 1 m/S 594 mmHg 24%
    17:00 +19°C° 0 mm 2 m/S 593 mmHg 28%
    18:00 +19°C° 0 mm 1 m/S 594 mmHg 31%
    19:00 +18°C° 0 mm 1 m/S 594 mmHg 35%
    20:00 +16°C° 0 mm 1 m/S 594 mmHg 38%
    21:00 +15°C° 0 mm 1 m/S 594 mmHg 42%
    22:00 +14°C° 0 mm 1 m/S 594 mmHg 46%
    23:00 +14°C° 0 mm 1 m/S 593 mmHg 50%

    Morgen, 16 Dezember, Montag

    Zeit Temperatur Niederschläge Wind Luftdruck Luftfeuchtigkeit
    00:00 +13°C° 0 mm 1 m/S 593 mmHg 54%
    01:00 +13°C° 0 mm 1 m/S 593 mmHg 59%
    02:00 +12°C° 0 mm 1 m/S 592 mmHg 63%
    03:00 +12°C° 0 mm 1 m/S 592 mmHg 65%
    04:00 +12°C° 0 mm 1 m/S 592 mmHg 67%
    05:00 +11°C° 0 mm 1 m/S 592 mmHg 69%
    06:00 +13°C° 0 mm 1 m/S 593 mmHg 63%
    07:00 +14°C° 0 mm 1 m/S 594 mmHg 57%
    08:00 +16°C° 0 mm 1 m/S 595 mmHg 51%
    09:00 +19°C° 0 mm 1 m/S 596 mmHg 45%
    10:00 +21°C° 0 mm 1 m/S 596 mmHg 39%
    11:00 +22°C° 0 mm 1 m/S 596 mmHg 33%
    12:00 +23°C° 0 mm 1 m/S 596 mmHg 31%
    13:00 +24°C° 0 mm 1 m/S 596 mmHg 28%
    14:00 +25°C° 0 mm 1 m/S 595 mmHg 26%
    15:00 +23°C° 0 mm 2 m/S 595 mmHg 30%
    16:00 +21°C° 0 mm 2 m/S 595 mmHg 34%
    17:00 +19°C° 0 mm 3 m/S 594 mmHg 38%
    18:00 +18°C° 0 mm 2 m/S 594 mmHg 43%
    19:00 +17°C° 0 mm 2 m/S 595 mmHg 47%
    20:00 +16°C° 0 mm 1 m/S 595 mmHg 52%
    21:00 +15°C° 0 mm 1 m/S 595 mmHg 55%
    22:00 +15°C° 0 mm 1 m/S 594 mmHg 58%
    23:00 +14°C° 0 mm 1 m/S 594 mmHg 61%

    übermorgen, 17 Dezember, Dienstag

    Zeit Temperatur Niederschläge Wind Luftdruck Luftfeuchtigkeit
    00:00 +13°C° 0 mm 1 m/S 594 mmHg 63%
    01:00 +13°C° 0 mm 1 m/S 594 mmHg 65%
    02:00 +12°C° 0 mm 1 m/S 593 mmHg 68%
    03:00 +12°C° 0 mm 1 m/S 593 mmHg 69%
    04:00 +11°C° 0 mm 1 m/S 593 mmHg 71%
    05:00 +11°C° 0 mm 1 m/S 593 mmHg 72%
    06:00 +12°C° 0 mm 1 m/S 594 mmHg 69%
    07:00 +13°C° 0 mm 2 m/S 595 mmHg 66%
    08:00 +13°C° 0 mm 2 m/S 596 mmHg 63%
    09:00 +15°C° 0 mm 2 m/S 596 mmHg 59%
    10:00 +16°C° 0 mm 3 m/S 597 mmHg 55%
    11:00 +18°C° 0 mm 3 m/S 597 mmHg 52%
    12:00 +18°C° 0 mm 3 m/S 597 mmHg 50%
    13:00 +19°C° 0 mm 3 m/S 596 mmHg 47%
    14:00 +20°C° 0 mm 4 m/S 596 mmHg 45%
    15:00 +18°C° 0 mm 4 m/S 595 mmHg 57%
    16:00 +15°C° 0 mm 4 m/S 595 mmHg 69%
    17:00 +13°C° 0 mm 4 m/S 594 mmHg 80%
    18:00 +12°C° 0 mm 3 m/S 595 mmHg 81%
    19:00 +12°C° 0 mm 3 m/S 595 mmHg 81%
    20:00 +12°C° 0 mm 2 m/S 596 mmHg 82%
    21:00 +12°C° 0 mm 2 m/S 596 mmHg 82%
    22:00 +10°C° 0 mm 2 m/S 596 mmHg 83%
    23:00 +10°C° 0 mm 2 m/S 596 mmHg 83%

    18 Dezember, Mittwoch

    Zeit Temperatur Niederschläge Wind Luftdruck Luftfeuchtigkeit
    00:00 +10°C° 0 mm 2 m/S 595 mmHg 84%
    01:00 +9°C° 0 mm 2 m/S 595 mmHg 84%
    02:00 +9°C° 0 mm 2 m/S 595 mmHg 84%
    03:00 +8°C° 0 mm 2 m/S 595 mmHg 84%
    04:00 +7°C° 0 mm 2 m/S 595 mmHg 85%
    05:00 +7°C° 0 mm 2 m/S 595 mmHg 85%
    06:00 +7°C° 0 mm 2 m/S 595 mmHg 82%
    07:00 +7°C° 0 mm 2 m/S 595 mmHg 79%
    08:00 +9°C° 0 mm 1 m/S 596 mmHg 77%
    09:00 +9°C° 0 mm 2 m/S 596 mmHg 69%
    10:00 +12°C° 0 mm 2 m/S 596 mmHg 62%
    11:00 +14°C° 0 mm 2 m/S 597 mmHg 55%
    12:00 +14°C° 0 mm 3 m/S 597 mmHg 52%
    13:00 +16°C° 0 mm 3 m/S 596 mmHg 48%
    14:00 +17°C° 0 mm 4 m/S 596 mmHg 45%
    15:00 +14°C° 0 mm 4 m/S 596 mmHg 50%
    16:00 +12°C° 0 mm 3 m/S 595 mmHg 55%
    17:00 +11°C° 0 mm 3 m/S 595 mmHg 60%
    18:00 +10°C° 0 mm 3 m/S 595 mmHg 65%
    19:00 +8°C° 0 mm 2 m/S 595 mmHg 70%
    20:00 +7°C° 0 mm 2 m/S 594 mmHg 75%
    21:00 +8°C° 0 mm 1 m/S 594 mmHg 77%
    22:00 +7°C° 0 mm 1 m/S 594 mmHg 79%
    23:00 +7°C° 0 mm 1 m/S 594 mmHg 81%

    19 Dezember, Donnerstag

    Zeit Temperatur Niederschläge Wind Luftdruck Luftfeuchtigkeit
    00:00 +7°C° 0 mm 1 m/S 593 mmHg 83%
    01:00 +7°C° 0 mm 1 m/S 593 mmHg 85%
    02:00 +5°C° 0 mm 0 m/S 592 mmHg 87%
    03:00 +5°C° 0 mm 0 m/S 592 mmHg 88%
    04:00 +5°C° 0 mm 0 m/S 592 mmHg 88%
    05:00 +5°C° 0 mm 0 m/S 592 mmHg 89%
    06:00 +8°C° 0 mm 1 m/S 593 mmHg 82%
    07:00 +10°C° 0 mm 1 m/S 594 mmHg 74%
    08:00 +12°C° 0 mm 1 m/S 596 mmHg 67%
    09:00 +14°C° 0 mm 1 m/S 596 mmHg 59%
    10:00 +18°C° 0 mm 1 m/S 597 mmHg 51%
    11:00 +20°C° 0 mm 1 m/S 597 mmHg 44%
    12:00 +21°C° 0 mm 1 m/S 597 mmHg 41%
    13:00 +21°C° 0 mm 2 m/S 597 mmHg 37%
    14:00 +22°C° 0 mm 3 m/S 596 mmHg 34%
    15:00 +20°C° 0 mm 3 m/S 596 mmHg 40%
    16:00 +19°C° 0 mm 2 m/S 595 mmHg 45%
    17:00 +17°C° 0 mm 2 m/S 595 mmHg 50%
    18:00 +16°C° 0 mm 2 m/S 595 mmHg 56%
    19:00 +15°C° 0 mm 1 m/S 595 mmHg 61%
    20:00 +13°C° 0 mm 0 m/S 595 mmHg 67%
    21:00 +12°C° 0 mm 0 m/S 595 mmHg 68%
    22:00 +12°C° 0 mm 0 m/S 594 mmHg 69%
    23:00 +12°C° 0 mm 0 m/S 594 mmHg 70%

    20 Dezember, Freitag

    Zeit Temperatur Niederschläge Wind Luftdruck Luftfeuchtigkeit
    00:00 +11°C° 0 mm 0 m/S 594 mmHg 70%
    01:00 +11°C° 0 mm 0 m/S 594 mmHg 70%
    02:00 +11°C° 0 mm 0 m/S 593 mmHg 69%
    03:00 +11°C° 0 mm 0 m/S 594 mmHg 69%
    04:00 +10°C° 0 mm 0 m/S 594 mmHg 69%
    05:00 +10°C° 0 mm 0 m/S 594 mmHg 69%
    06:00 +12°C° 0 mm 0 m/S 595 mmHg 63%
    07:00 +13°C° 0 mm 0 m/S 596 mmHg 56%
    08:00 +15°C° 0 mm 0 m/S 597 mmHg 50%
    09:00 +18°C° 0 mm 1 m/S 597 mmHg 47%
    10:00 +18°C° 0 mm 2 m/S 598 mmHg 44%
    11:00 +19°C° 0 mm 2 m/S 598 mmHg 41%
    12:00 +19°C° 0 mm 3 m/S 598 mmHg 41%
    13:00 +20°C° 0 mm 4 m/S 597 mmHg 41%
    14:00 +20°C° 0 mm 5 m/S 597 mmHg 42%
    15:00 +18°C° 0 mm 4 m/S 597 mmHg 49%
    16:00 +17°C° 0 mm 4 m/S 596 mmHg 56%
    17:00 +14°C° 0 mm 3 m/S 596 mmHg 63%
    18:00 +13°C° 0 mm 3 m/S 596 mmHg 70%
    19:00 +13°C° 0 mm 2 m/S 596 mmHg 77%
    20:00 +12°C° 0 mm 2 m/S 596 mmHg 85%
    21:00 +10°C° 0 mm 2 m/S 596 mmHg 86%
    22:00 +10°C° 0 mm 2 m/S 596 mmHg 87%
    23:00 +10°C° 0 mm 2 m/S 596 mmHg 88%
    Mehr zeigen